Other Surface Observations
Issued by NWS Tucson, AZ

Current Version | Previous Version | Text Only | Print | Product List | Glossary On
Versions: 1 2 3 4 5 6 7 8 9 10 11 12 13 14 15 16 17 18 19 20 21 22 23 24 25 26 27 28 29 30 31 32 33 34 35 36 37 38 39 40 41 42 43 44 45 46 47 48 49 50
000
SXUS55 KTWC 031215
OSOTWC

WEATHER ROUNDUP FOR SOUTHEAST ARIZONA
NATIONAL WEATHER SERVICE TUCSON AZ
515 AM MST FRI JUL 03 2015

AZZ504>506-514-031315-
LOCATION       SKY/WX    TMP DP  RH WIND       PRES   REMARKS
TUCSON         CLOUDY    85  57  38 E12       30.01R
DAVIS-MONTHAN  CLOUDY    82  60  47 NE20G26   29.99R
CHILDRENS PARK N/A       85  57  39 SE3               PIMA CO DEQ
ALVERNON/22ND  N/A      N/A N/A N/A N/A               PIMA CO DEQ
CHERRY/GLENN   N/A      N/A N/A N/A N/A               PIMA CO DEQ
TANGERINE      N/A       82 N/A N/A E3                PIMA CO DEQ
CONTL RANCH    N/A       86  58  39 E1                PIMA CO DEQ
GRANT/1ST      N/A       86  55  35 E4                PIMA CO DEQ
CRAYCROFT/22ND N/A      N/A N/A N/A N/A               PIMA CO DEQ
GOLFLINKS/KOLB N/A      N/A N/A N/A N/A               PIMA CO DEQ
AJO/12TH       N/A       86  57  38 SE6               PIMA CO DEQ
SAGUARO EAST   N/A      N/A N/A N/A N/A               PIMA CO DEQ
FAIRGROUNDS    N/A       81 N/A N/A E5                PIMA CO DEQ
SAGUARO        N/A       84  54  36 NE9G14            *SABINO CYN
SAN CARLOS     N/A       77  60  55 SE13G26           *SAN CARLOS
GREEN VALLEY   N/A       81  60  49 SW7               PIMA CO DEQ
HORSE CAMP CYN N/A       68  62  81 E10G46            *ARAVAIPA CYN
RINCON MTNS    N/A       55  54  96 NE8G13            *NR MANNING CAMP
$$

AZZ509>511-031315-
LOCATION       SKY/WX    TMP DP  RH WIND       PRES   REMARKS
SAFFORD        CLOUDY    71  68  90 NE13      30.09R
STRAY HORSE    N/A       56  54  94 CALM              *
TRAIL CABIN    N/A       61  59  94 SW4G10            *N OF GRANVILLE
BLACK HILLS    N/A       72  65  80 E8G17             *N OF FT THOMAS
DRY LAKE       N/A       58  55  91 S9G15             *NATANES MTNS
NOON CREEK     N/A       64  60  87 W5G14             *PINALENO MTNS
COLUMBINE      N/A       51  50  96 S2                *PINALENO MTNS
GUTHRIE        N/A       59  59  100 SW22G33          *SW OF GUTHRIE
$$

AZZ502-503-513-031315-
LOCATION       SKY/WX    TMP DP  RH WIND       PRES   REMARKS
NOGALES        CLOUDY    73  61  65 SE5       30.08R
SELLS          N/A       82  62  51 SE8G11            *
SASABE         N/A       74  62  66 SW7G11            *ALTAR VLY
HOPKINS        N/A       66  47  51 NE8G24            *SANTA RITA MTNS
CARR CYN       N/A       68  58  71 CALM              *W OF HEREFORD
$$

AZZ507-508-512-031315-
LOCATION       SKY/WX    TMP DP  RH WIND       PRES   REMARKS
SIERRA VISTA   CLOUDY    70  62  75 E3        30.18R
DOUGLAS        CLOUDY    67  62  84 W7        30.11S
EMPIRE MTNS    N/A       71  61  71 NE9G16            *LAS CIENEGAS NCA
MULESHOE RANCH N/A       70  62  77 E8G19             *PRESERVE
HEADQUARTERS   N/A       62  60  94 N2G12             *CHIRICAHUA MTNS
$$

.............................NOTES.............................
THIS IS AN AUTOMATED COLLECTIVE WITH MINIMAL QUALITY CONTROL.
PIMA CO DEQ SITES HAVE NONSTANDARD WIND SENSOR HEIGHTS.
PIMA CO DEQ SITES DO NOT REPORT WIND GUSTS.
* INDICATES WIND SENSORS LOCATED AT 20 FEET INSTEAD OF 33 FEET.
..............................KEY..............................
SKY/WX - SKY CONDITION/WEATHER
TMP    - TEMPERATURE IN FAHRENHEIT
DP     - DEWPOINT IN FAHRENHEIT
RH     - RELATIVE HUMIDITY IN PERCENT
WIND   - DIRECTION AND SPEED IN MILES PER HOUR (MPH)
VRB    - VARIABLE WIND DIRECTION
PRES   - MEAN SEA LEVEL PRESSURE IN INCHES OF MERCURY
         F - FALLING PRESSURE   R - RISING PRESSURE
         S - STEADY PRESSURE
VSB    - VISIBILITY IN MILES
HX     - HEAT INDEX IN FAHRENHEIT
WCI    - WIND CHILL INDEX IN FAHRENHEIT
N/A    - NOT AVAILABLE
AFB    - AIR FORCE BASE
         DAVIS-MONTHAN IS DAVIS-MONTHAN AIR FORCE BASE
CYN    - CANYON
MTNS   - MOUNTAINS
NCA    - NATIONAL CONSERVATION AREA
NR     - NEAR
VLY    - VALLEY
CONTL  - CONTINENTAL
PIMA CO DEQ - PIMA COUNTY DEPT OF ENVIRONMENTAL QUALITY



USA.gov is the U.S. government's official web portal to all federal, state and local government web resources and services.